| time (UTC) | temp F | wind direction | speed MPH | gust MPH | rain 1hr in | rain 24hr in | rain mn in | humidity % | barometer mb |
| 20260506182614 | 58 | 54 | 1.0 | 5.0 | 0.00 | 0.34 | 0.34 | 99 | 1010.0 |
| 20260506182111 | 58 | 30 | 1.0 | 3.0 | 0.00 | 0.34 | 0.34 | 99 | 1010.1 |
| 20260506181609 | 58 | 47 | 1.0 | 1.0 | 0.00 | 0.34 | 0.34 | 99 | 1010.3 |
| 20260506181105 | 58 | 37 | 0.0 | 5.0 | 0.00 | 0.34 | 0.34 | 99 | 1010.1 |
| 20260506180602 | 58 | 83 | 2.0 | 5.0 | 0.00 | 0.34 | 0.34 | 99 | 1010.3 |
| 20260506180059 | 58 | 62 | 1.0 | 2.0 | 0.00 | 0.34 | 0.34 | 99 | 1010.5 |
| 20260506175555 | 58 | 33 | 0.0 | 3.0 | 0.05 | 0.34 | 0.34 | 99 | 1010.4 |
| 20260506175051 | 58 | 7 | 1.0 | 2.0 | 0.05 | 0.34 | 0.34 | 99 | 1010.3 |
| 20260506174550 | 58 | 22 | 0.0 | 1.0 | 0.00 | 0.33 | 0.33 | 99 | 1010.5 |
| 20260506174045 | 58 | 32 | 1.0 | 2.0 | 0.07 | 0.33 | 0.33 | 99 | 1010.3 |
| 20260506173538 | 58 | 21 | 1.0 | 3.0 | 0.07 | 0.33 | 0.33 | 99 | 1010.7 |
| 20260506173034 | 58 | 41 | 0.0 | 2.0 | 0.05 | 0.32 | 0.32 | 99 | 1010.5 |
| 20260506172532 | 58 | 34 | 0.0 | 3.0 | 0.05 | 0.32 | 0.32 | 99 | 1010.5 |
| 20260506172028 | 58 | 34 | 0.0 | 1.0 | 0.07 | 0.31 | 0.31 | 99 | 1010.7 |
| 20260506171525 | 58 | 64 | 1.0 | 2.0 | 0.07 | 0.31 | 0.31 | 99 | 1010.7 |
| 20260506171023 | 58 | 31 | 0.0 | 1.0 | 0.05 | 0.30 | 0.30 | 99 | 1010.5 |
| 20260506170520 | 58 | 36 | 0.0 | 2.0 | 0.05 | 0.30 | 0.30 | 99 | 1010.5 |
| 20260506170017 | 57 | 31 | 0.0 | 0.0 | 0.00 | 0.29 | 0.29 | 99 | 1010.4 |
| 20260506165515 | 58 | 33 | 0.0 | 1.0 | 0.00 | 0.29 | 0.29 | 99 | 1010.5 |
| 20260506165006 | 58 | 39 | 0.0 | 0.0 | 0.00 | 0.29 | 0.29 | 99 | 1010.4 |
| 20260506164503 | 58 | 64 | 1.0 | 2.0 | 0.00 | 0.29 | 0.29 | 99 | 1010.5 |
| 20260506164000 | 58 | 37 | 0.0 | 2.0 | 0.07 | 0.29 | 0.29 | 99 | 1010.4 |
| 20260506163455 | 57 | 63 | 0.0 | 1.0 | 0.07 | 0.29 | 0.29 | 99 | 1010.5 |
| 20260506162949 | 57 | 68 | 1.0 | 1.0 | 0.07 | 0.28 | 0.28 | 99 | 1010.4 |
| 20260506162447 | 57 | 20 | 1.0 | 3.0 | 0.07 | 0.28 | 0.28 | 99 | 1010.7 |
| 20260506161940 | 57 | 16 | 3.0 | 5.0 | 0.05 | 0.27 | 0.27 | 99 | 1010.7 |
| 20260506161437 | 57 | 359 | 1.0 | 1.0 | 0.17 | 0.27 | 0.27 | 99 | 1011.0 |
| 20260506160934 | 58 | 38 | 0.0 | 1.0 | 0.17 | 0.25 | 0.25 | 99 | 1011.0 |
| 20260506160432 | 57 | 31 | 0.0 | 1.0 | 0.12 | 0.23 | 0.23 | 99 | 1011.1 |
| 20260506155929 | 58 | 73 | 0.0 | 3.0 | 0.12 | 0.22 | 0.22 | 99 | 1010.8 |
| 20260506155426 | 58 | 37 | 0.0 | 1.0 | 0.17 | 0.21 | 0.21 | 99 | 1010.8 |
| 20260506153548 | 58 | 163 | 1.0 | 3.0 | 0.14 | 0.16 | 0.16 | 99 | 1011.1 |
| 20260506153045 | 58 | 71 | 1.0 | 1.0 | 0.12 | 0.15 | 0.15 | 99 | 1011.3 |
| 20260506152542 | 58 | 137 | 2.0 | 3.0 | 0.05 | 0.14 | 0.14 | 99 | 1011.0 |
| 20260506152040 | 58 | 15 | 0.0 | 1.0 | 0.07 | 0.13 | 0.13 | 99 | 1010.9 |
| 20260506151538 | 58 | 34 | 0.0 | 2.0 | 0.00 | 0.12 | 0.12 | 98 | 1011.2 |
| 20260506151035 | 58 | 64 | 0.0 | 2.0 | 0.05 | 0.12 | 0.12 | 98 | 1011.0 |
| 20260506150531 | 58 | 31 | 1.0 | 2.0 | 0.05 | 0.12 | 0.12 | 98 | 1010.9 |
| 20260506150029 | 58 | 43 | 2.0 | 2.0 | 0.00 | 0.11 | 0.11 | 98 | 1010.9 |
| 20260506145525 | 58 | 111 | 3.0 | 3.0 | 0.00 | 0.11 | 0.11 | 98 | 1010.9 |
| 20260506145023 | 58 | 39 | 1.0 | 5.0 | 0.07 | 0.11 | 0.11 | 98 | 1010.9 |
| 20260506144519 | 57 | 20 | 2.0 | 6.0 | 0.07 | 0.11 | 0.11 | 98 | 1011.0 |
| 20260506144017 | 57 | 50 | 0.0 | 3.0 | 0.05 | 0.10 | 0.10 | 98 | 1011.1 |
| 20260506143514 | 57 | 169 | 4.0 | 5.0 | 0.05 | 0.10 | 0.10 | 98 | 1011.2 |
| 20260506143013 | 57 | 43 | 0.0 | 5.0 | 0.07 | 0.09 | 0.09 | 98 | 1011.1 |
| 20260506142510 | 57 | 62 | 0.0 | 2.0 | 0.07 | 0.09 | 0.09 | 98 | 1011.2 |
| 20260506142008 | 57 | 63 | 1.0 | 2.0 | 0.05 | 0.08 | 0.08 | 98 | 1011.3 |
| 20260506141506 | 57 | 40 | 0.0 | 2.0 | 0.12 | 0.08 | 0.08 | 98 | 1011.5 |
| 20260506141004 | 57 | 43 | 0.0 | 1.0 | 0.07 | 0.07 | 0.07 | 98 | 1011.4 |
| 20260506140501 | 57 | 45 | 3.0 | 5.0 | 0.00 | 0.06 | 0.06 | 97 | 1011.6 |
| 20260506135957 | 57 | 37 | 0.0 | 3.0 | 0.05 | 0.06 | 0.06 | 97 | 1011.6 |
| 20260506135455 | 57 | 346 | 2.0 | 2.0 | 0.05 | 0.06 | 0.06 | 97 | 1011.8 |
| 20260506134950 | 57 | 211 | 2.0 | 3.0 | 0.00 | 0.05 | 0.05 | 97 | 1011.5 |
| 20260506134446 | 58 | 103 | 2.0 | 3.0 | 0.00 | 0.05 | 0.05 | 97 | 1011.7 |
| 20260506133943 | 57 | 155 | 1.0 | 6.0 | 0.00 | 0.05 | 0.05 | 96 | 1011.8 |
| 20260506133441 | 58 | 179 | 4.0 | 5.0 | 0.07 | 0.05 | 0.05 | 96 | 1011.9 |
| 20260506132937 | 58 | 8 | 1.0 | 5.0 | 0.05 | 0.04 | 0.04 | 96 | 1011.9 |
| 20260506132434 | 58 | 9 | 1.0 | 5.0 | 0.12 | 0.04 | 0.04 | 95 | 1012.0 |
| 20260506131932 | 58 | 359 | 1.0 | 5.0 | 0.14 | 0.03 | 0.03 | 94 | 1012.2 |
| 20260506131428 | 58 | 17 | 2.0 | 9.0 | 0.07 | 0.02 | 0.02 | 93 | 1012.2 |
| 20260506130925 | 59 | 42 | 0.0 | 2.0 | 0.05 | 0.01 | 0.01 | 93 | 1012.1 |
| 20260506130422 | 59 | 37 | 0.0 | 2.0 | 0.05 | 0.01 | 0.01 | 91 | 1011.9 |
| 20260506125920 | 59 | 37 | 1.0 | 6.0 | 0.00 | 0.00 | 0.00 | 88 | 1011.8 |
| 20260506125418 | 60 | 10 | 3.0 | 7.0 | 0.00 | 0.00 | 0.00 | 87 | 1011.8 |
| 20260506124916 | 60 | 44 | 2.0 | 8.0 | 0.00 | 0.00 | 0.00 | 85 | 1011.5 |
| 20260506124413 | 60 | 31 | 0.0 | 3.0 | 0.00 | 0.00 | 0.00 | 85 | 1011.6 |
| 20260506123911 | 60 | 61 | 0.0 | 1.0 | 0.00 | 0.00 | 0.00 | 84 | 1011.7 |
| 20260506123409 | 61 | 183 | 5.0 | 10.0 | 0.00 | 0.00 | 0.00 | 83 | 1011.5 |
| 20260506122906 | 61 | 130 | 4.0 | 7.0 | 0.00 | 0.00 | 0.00 | 81 | 1011.3 |
| 20260506122402 | 61 | 218 | 2.0 | 6.0 | 0.00 | 0.00 | 0.00 | 80 | 1011.5 |
| 20260506121901 | 61 | 305 | 2.0 | 5.0 | 0.00 | 0.00 | 0.00 | 79 | 1011.3 |
| 20260506121357 | 61 | 31 | 1.0 | 7.0 | 0.00 | 0.00 | 0.00 | 78 | 1011.5 |
| 20260506120854 | 61 | 351 | 3.0 | 6.0 | 0.00 | 0.00 | 0.00 | 78 | 1011.7 |
| 20260506120352 | 61 | 76 | 3.0 | 5.0 | 0.00 | 0.00 | 0.00 | 78 | 1011.6 |
| 20260506115849 | 61 | 10 | 0.0 | 3.0 | 0.00 | 0.00 | 0.00 | 78 | 1011.6 |
| 20260506115347 | 62 | 134 | 5.0 | 6.0 | 0.00 | 0.00 | 0.00 | 76 | 1011.7 |
| 20260506114845 | 61 | 71 | 1.0 | 2.0 | 0.00 | 0.00 | 0.00 | 77 | 1011.7 |
| 20260506114342 | 61 | 148 | 3.0 | 6.0 | 0.00 | 0.00 | 0.00 | 76 | 1011.5 |
| 20260506113841 | 61 | 54 | 1.0 | 5.0 | 0.00 | 0.00 | 0.00 | 76 | 1011.6 |
| 20260506113338 | 61 | 58 | 1.0 | 2.0 | 0.00 | 0.00 | 0.00 | 76 | 1011.6 |
| 20260506112834 | 61 | 86 | 1.0 | 5.0 | 0.00 | 0.00 | 0.00 | 75 | 1011.6 |
| 20260506112332 | 61 | 39 | 0.0 | 1.0 | 0.00 | 0.00 | 0.00 | 75 | 1011.6 |
| 20260506111829 | 61 | 38 | 2.0 | 5.0 | 0.00 | 0.00 | 0.00 | 75 | 1011.5 |
| 20260506111328 | 62 | 43 | 2.0 | 2.0 | 0.00 | 0.00 | 0.00 | 73 | 1011.5 |
| 20260506110825 | 62 | 56 | 2.0 | 3.0 | 0.00 | 0.00 | 0.00 | 73 | 1011.7 |
| 20260506110321 | 62 | 59 | 1.0 | 3.0 | 0.00 | 0.00 | 0.00 | 73 | 1011.5 |
| 20260506105818 | 62 | 35 | 1.0 | 3.0 | 0.00 | 0.00 | 0.00 | 72 | 1011.5 |
| 20260506105315 | 62 | 40 | 0.0 | 2.0 | 0.00 | 0.00 | 0.00 | 72 | 1011.2 |
| 20260506104812 | 62 | 103 | 2.0 | 5.0 | 0.00 | 0.00 | 0.00 | 71 | 1010.9 |
| 20260506104310 | 62 | 59 | 1.0 | 7.0 | 0.00 | 0.00 | 0.00 | 70 | 1011.0 |
| 20260506103807 | 62 | 45 | 5.0 | 10.0 | 0.00 | 0.00 | 0.00 | 70 | 1011.2 |
| 20260506103305 | 62 | 57 | 3.0 | 6.0 | 0.00 | 0.00 | 0.00 | 70 | 1011.2 |
| 20260506102802 | 62 | 209 | 2.0 | 5.0 | 0.00 | 0.00 | 0.00 | 71 | 1011.1 |
| 20260506102300 | 62 | 44 | 1.0 | 5.0 | 0.00 | 0.00 | 0.00 | 70 | 1011.0 |
| 20260506101757 | 62 | 75 | 0.0 | 3.0 | 0.00 | 0.00 | 0.00 | 70 | 1010.8 |
| 20260506101253 | 62 | 227 | 6.0 | 9.0 | 0.00 | 0.00 | 0.00 | 69 | 1011.0 |
| 20260506100751 | 62 | 25 | 0.0 | 1.0 | 0.00 | 0.00 | 0.00 | 70 | 1011.2 |
| 20260506100249 | 62 | 125 | 3.0 | 5.0 | 0.00 | 0.00 | 0.00 | 69 | 1011.1 |
| 20260506095747 | 62 | 39 | 1.0 | 3.0 | 0.00 | 0.00 | 0.00 | 69 | 1011.2 |
| 20260506095244 | 62 | 1 | 0.0 | 2.0 | 0.00 | 0.00 | 0.00 | 70 | 1011.1 |
| 20260506094740 | 62 | 356 | 1.0 | 3.0 | 0.00 | 0.00 | 0.00 | 69 | 1011.1 |
| 20260506094239 | 62 | 43 | 1.0 | 2.0 | 0.00 | 0.00 | 0.00 | 68 | 1010.9 |
| 20260506093737 | 62 | 62 | 1.0 | 5.0 | 0.00 | 0.00 | 0.00 | 68 | 1011.0 |
| 20260506093234 | 62 | 33 | 2.0 | 6.0 | 0.00 | 0.00 | 0.00 | 67 | 1011.0 |
| 20260506092732 | 62 | 35 | 1.0 | 6.0 | 0.00 | 0.00 | 0.00 | 67 | 1011.0 |
| 20260506092230 | 62 | 213 | 3.0 | 5.0 | 0.00 | 0.00 | 0.00 | 67 | 1010.9 |
| 20260506091726 | 62 | 351 | 1.0 | 1.0 | 0.00 | 0.00 | 0.00 | 67 | 1011.1 |
| 20260506091224 | 62 | 33 | 0.0 | 1.0 | 0.00 | 0.00 | 0.00 | 68 | 1011.2 |
| 20260506090721 | 62 | 38 | 0.0 | 1.0 | 0.00 | 0.00 | 0.00 | 67 | 1011.3 |
| 20260506090218 | 62 | 40 | 0.0 | 3.0 | 0.00 | 0.00 | 0.00 | 66 | 1011.1 |
| 20260506085710 | 62 | 79 | 3.0 | 3.0 | 0.00 | 0.00 | 0.00 | 66 | 1011.3 |
| 20260506085206 | 62 | 24 | 1.0 | 3.0 | 0.00 | 0.00 | 0.00 | 66 | 1011.5 |
| 20260506084702 | 62 | 6 | 1.0 | 2.0 | 0.00 | 0.00 | 0.00 | 66 | 1011.4 |
| 20260506084159 | 62 | 92 | 2.0 | 2.0 | 0.00 | 0.00 | 0.00 | 65 | 1011.3 |
| 20260506083655 | 63 | 351 | 1.0 | 5.0 | 0.00 | 0.00 | 0.00 | 64 | 1011.4 |
| 20260506083154 | 63 | 296 | 3.0 | 3.0 | 0.00 | 0.00 | 0.00 | 64 | 1011.4 |
| 20260506082650 | 63 | 327 | 2.0 | 6.0 | 0.00 | 0.00 | 0.00 | 63 | 1011.2 |
| 20260506082145 | 63 | 281 | 2.0 | 5.0 | 0.00 | 0.00 | 0.00 | 63 | 1011.3 |
| 20260506081643 | 63 | 341 | 1.0 | 3.0 | 0.00 | 0.00 | 0.00 | 64 | 1011.2 |
| 20260506081141 | 63 | 23 | 0.0 | 2.0 | 0.00 | 0.00 | 0.00 | 63 | 1011.3 |
| 20260506080638 | 63 | 106 | 1.0 | 2.0 | 0.00 | 0.00 | 0.00 | 63 | 1011.3 |
| 20260506080135 | 63 | 112 | 2.0 | 2.0 | 0.00 | 0.00 | 0.00 | 63 | 1011.5 |
| 20260506073119 | 63 | 29 | 1.0 | 3.0 | 0.00 | 0.00 | 0.00 | 61 | 1011.5 |
| 20260506072615 | 63 | 344 | 2.0 | 5.0 | 0.00 | 0.00 | 0.00 | 61 | 1011.7 |
| 20260506072114 | 63 | 290 | 2.0 | 7.0 | 0.00 | 0.00 | 0.00 | 61 | 1011.5 |
| 20260506071611 | 63 | 121 | 3.0 | 3.0 | 0.00 | 0.00 | 0.00 | 61 | 1011.5 |
| 20260506071108 | 63 | 65 | 2.0 | 5.0 | 0.00 | 0.00 | 0.00 | 61 | 1011.5 |
| 20260506070605 | 63 | 42 | 1.0 | 3.0 | 0.00 | 0.00 | 0.00 | 60 | 1011.6 |
| 20260506062039 | 63 | 18 | 3.0 | 7.0 | 0.00 | 0.00 | 0.00 | 59 | 1012.0 |
| 20260506061535 | 63 | 160 | 4.0 | 7.0 | 0.00 | 0.00 | 0.00 | 59 | 1011.8 |
| 20260506061033 | 63 | 20 | 2.0 | 5.0 | 0.00 | 0.00 | 0.00 | 60 | 1012.2 |
| 20260506060531 | 63 | 72 | 0.0 | 2.0 | 0.00 | 0.00 | 0.00 | 61 | 1012.0 |
| 20260506051000 | 63 | 23 | 0.0 | 2.0 | 0.00 | 0.00 | 0.00 | 61 | 1012.2 |
| 20260506050458 | 63 | 83 | 1.0 | 2.0 | 0.00 | 0.00 | 0.00 | 61 | 1012.2 |
| 20260506044948 | 63 | 14 | 1.0 | 5.0 | 0.00 | 0.00 | 0.00 | 60 | 1012.6 |
| 20260506044446 | 62 | 21 | 0.0 | 5.0 | 0.00 | 0.00 | 0.00 | 61 | 1012.7 |
| 20260506043943 | 62 | 31 | 0.0 | 2.0 | 0.00 | 0.00 | 0.00 | 61 | 1012.5 |
| 20260506043440 | 63 | 174 | 3.0 | 3.0 | 0.00 | 0.00 | 0.00 | 61 | 1012.5 |
| 20260506042938 | 63 | 33 | 0.0 | 1.0 | 0.00 | 0.00 | 0.00 | 61 | 1012.7 |
| 20260506042437 | 63 | 12 | 0.0 | 2.0 | 0.00 | 0.00 | 0.00 | 61 | 1012.7 |
| 20260506041935 | 63 | 29 | 0.0 | 2.0 | 0.00 | 0.00 | 0.00 | 60 | 1012.6 |
| 20260506041432 | 63 | 0 | 0.0 | 3.0 | 0.00 | 0.00 | 0.00 | 61 | 1012.5 |
| 20260506040929 | 63 | 61 | 1.0 | 3.0 | 0.00 | 0.00 | 0.00 | 59 | 1012.7 |
| 20260506040427 | 63 | 25 | 0.0 | 1.0 | 0.00 | 0.00 | 0.00 | 60 | 1012.6 |
| 20260506035923 | 64 | 40 | 0.0 | 3.0 | 0.00 | 0.03 | 0.03 | 59 | 1012.7 |
| 20260506035420 | 64 | 24 | 1.0 | 2.0 | 0.00 | 0.03 | 0.03 | 58 | 1012.8 |
| 20260506034917 | 64 | 57 | 0.0 | 3.0 | 0.00 | 0.03 | 0.03 | 58 | 1012.7 |
| 20260506034414 | 64 | 51 | 0.0 | 1.0 | 0.00 | 0.03 | 0.03 | 59 | 1012.7 |
| 20260506033911 | 64 | 24 | 1.0 | 2.0 | 0.00 | 0.03 | 0.03 | 57 | 1012.8 |
| 20260506033409 | 64 | 44 | 0.0 | 1.0 | 0.00 | 0.03 | 0.03 | 57 | 1012.7 |
| 20260506032905 | 64 | 49 | 0.0 | 1.0 | 0.00 | 0.03 | 0.03 | 57 | 1012.7 |
| 20260506032402 | 64 | 29 | 0.0 | 3.0 | 0.00 | 0.03 | 0.03 | 57 | 1012.7 |
| 20260506031859 | 64 | 13 | 0.0 | 2.0 | 0.00 | 0.03 | 0.03 | 57 | 1012.4 |
| 20260506031356 | 64 | 48 | 0.0 | 0.0 | 0.00 | 0.03 | 0.03 | 57 | 1012.5 |
| 20260506030854 | 64 | 49 | 0.0 | 1.0 | 0.00 | 0.03 | 0.03 | 56 | 1012.5 |
| 20260506030352 | 65 | 40 | 0.0 | 0.0 | 0.00 | 0.03 | 0.03 | 56 | 1012.6 |
| 20260506025848 | 65 | 76 | 1.0 | 2.0 | 0.00 | 0.03 | 0.03 | 54 | 1012.4 |
| 20260506025344 | 66 | 31 | 0.0 | 1.0 | 0.00 | 0.03 | 0.03 | 55 | 1012.4 |
| 20260506024842 | 66 | 46 | 1.0 | 5.0 | 0.00 | 0.03 | 0.03 | 54 | 1012.5 |
| 20260506024338 | 66 | 124 | 3.0 | 6.0 | 0.00 | 0.03 | 0.03 | 55 | 1012.6 |
| 20260506023835 | 66 | 42 | 0.0 | 1.0 | 0.00 | 0.03 | 0.03 | 55 | 1012.5 |
| 20260506023331 | 67 | 37 | 1.0 | 3.0 | 0.00 | 0.03 | 0.03 | 53 | 1012.5 |
| 20260506022828 | 67 | 54 | 1.0 | 2.0 | 0.00 | 0.03 | 0.03 | 54 | 1012.5 |
| 20260506022326 | 67 | 32 | 0.0 | 3.0 | 0.00 | 0.03 | 0.03 | 53 | 1012.4 |
| 20260506021824 | 67 | 39 | 0.0 | 1.0 | 0.00 | 0.03 | 0.03 | 54 | 1012.5 |
| 20260506021321 | 68 | 49 | 0.0 | 2.0 | 0.00 | 0.03 | 0.03 | 53 | 1012.5 |
| 20260506020817 | 68 | 39 | 0.0 | 5.0 | 0.00 | 0.03 | 0.03 | 52 | 1012.5 |
| 20260506020315 | 68 | 115 | 5.0 | 6.0 | 0.00 | 0.03 | 0.03 | 50 | 1012.5 |
| 20260506015813 | 68 | 210 | 1.0 | 2.0 | 0.00 | 0.03 | 0.03 | 51 | 1012.3 |
| 20260506015310 | 68 | 101 | 3.0 | 5.0 | 0.00 | 0.03 | 0.03 | 50 | 1012.3 |
| 20260506014806 | 68 | 46 | 0.0 | 6.0 | 0.00 | 0.03 | 0.03 | 51 | 1012.4 |
| 20260506014303 | 68 | 35 | 0.0 | 2.0 | 0.00 | 0.03 | 0.03 | 52 | 1012.5 |
| 20260506013800 | 68 | 314 | 1.0 | 2.0 | 0.00 | 0.03 | 0.03 | 52 | 1012.2 |
| 20260506013257 | 68 | 338 | 1.0 | 2.0 | 0.00 | 0.03 | 0.03 | 51 | 1012.3 |
| 20260506012754 | 68 | 62 | 1.0 | 3.0 | 0.00 | 0.03 | 0.03 | 51 | 1012.2 |
| 20260506012251 | 68 | 93 | 0.0 | 2.0 | 0.00 | 0.03 | 0.03 | 50 | 1012.1 |
| 20260506011748 | 68 | 22 | 1.0 | 2.0 | 0.00 | 0.03 | 0.03 | 50 | 1012.2 |
| 20260506011244 | 69 | 71 | 1.0 | 2.0 | 0.00 | 0.03 | 0.03 | 49 | 1012.1 |
| 20260506010743 | 69 | 33 | 0.0 | 2.0 | 0.00 | 0.03 | 0.03 | 50 | 1011.8 |
| 20260506010240 | 69 | 44 | 0.0 | 2.0 | 0.00 | 0.03 | 0.03 | 50 | 1011.9 |
| 20260506005737 | 69 | 43 | 0.0 | 2.0 | 0.00 | 0.03 | 0.03 | 51 | 1012.0 |
| 20260506005233 | 69 | 359 | 1.0 | 2.0 | 0.00 | 0.03 | 0.03 | 48 | 1011.7 |
| 20260506004729 | 69 | 39 | 0.0 | 0.0 | 0.00 | 0.03 | 0.03 | 49 | 1012.0 |
| 20260506004227 | 70 | 89 | 1.0 | 3.0 | 0.00 | 0.03 | 0.03 | 47 | 1012.0 |
| 20260506003723 | 70 | 38 | 0.0 | 1.0 | 0.00 | 0.03 | 0.03 | 48 | 1012.0 |
| 20260506003220 | 70 | 45 | 2.0 | 3.0 | 0.00 | 0.03 | 0.03 | 47 | 1011.8 |
| 20260506002715 | 70 | 25 | 0.0 | 1.0 | 0.00 | 0.03 | 0.03 | 47 | 1011.7 |
| 20260506002212 | 71 | 42 | 0.0 | 3.0 | 0.00 | 0.03 | 0.03 | 47 | 1011.4 |
| 20260506001708 | 71 | 27 | 2.0 | 6.0 | 0.00 | 0.03 | 0.03 | 47 | 1011.7 |
| 20260506001206 | 71 | 3 | 1.0 | 5.0 | 0.00 | 0.03 | 0.03 | 47 | 1011.5 |
| 20260506000702 | 70 | 40 | 0.0 | 3.0 | 0.00 | 0.03 | 0.03 | 48 | 1011.4 |
| 20260506000200 | 70 | 13 | 1.0 | 2.0 | 0.00 | 0.03 | 0.03 | 47 | 1011.5 |
| 20260505235657 | 71 | 54 | 0.0 | 5.0 | 0.00 | 0.03 | 0.03 | 48 | 1011.5 |
| 20260505235155 | 71 | 25 | 0.0 | 1.0 | 0.00 | 0.03 | 0.03 | 47 | 1011.5 |
| 20260505234651 | 71 | 204 | 1.0 | 1.0 | 0.00 | 0.03 | 0.03 | 46 | 1011.4 |
| 20260505234149 | 71 | 10 | 1.0 | 3.0 | 0.00 | 0.03 | 0.03 | 46 | 1011.3 |
| 20260505233645 | 71 | 5 | 1.0 | 2.0 | 0.00 | 0.03 | 0.03 | 47 | 1011.2 |
| 20260505233143 | 71 | 307 | 2.0 | 3.0 | 0.00 | 0.03 | 0.03 | 47 | 1011.3 |
| 20260505232640 | 71 | 188 | 5.0 | 7.0 | 0.00 | 0.03 | 0.03 | 45 | 1011.1 |
| 20260505232138 | 71 | 349 | 5.0 | 6.0 | 0.00 | 0.03 | 0.03 | 46 | 1011.5 |
| 20260505231634 | 70 | 29 | 0.0 | 3.0 | 0.00 | 0.03 | 0.03 | 48 | 1011.4 |
| 20260505231133 | 70 | 34 | 0.0 | 2.0 | 0.00 | 0.03 | 0.03 | 51 | 1011.3 |
| 20260505230631 | 71 | 358 | 1.0 | 3.0 | 0.00 | 0.03 | 0.03 | 49 | 1011.3 |
| 20260505230127 | 71 | 24 | 1.0 | 2.0 | 0.00 | 0.03 | 0.03 | 49 | 1011.2 |
| 20260505225623 | 71 | 64 | 1.0 | 2.0 | 0.00 | 0.03 | 0.03 | 48 | 1011.3 |
| 20260505225120 | 71 | 44 | 0.0 | 2.0 | 0.00 | 0.03 | 0.03 | 50 | 1011.2 |
| 20260505224616 | 71 | 41 | 0.0 | 2.0 | 0.00 | 0.03 | 0.03 | 51 | 1011.0 |
| 20260505224114 | 72 | 36 | 0.0 | 2.0 | 0.00 | 0.03 | 0.03 | 46 | 1011.0 |
| 20260505223611 | 72 | 8 | 2.0 | 6.0 | 0.00 | 0.03 | 0.03 | 47 | 1011.2 |
| 20260505223107 | 72 | 284 | 4.0 | 5.0 | 0.00 | 0.03 | 0.03 | 47 | 1011.0 |
| 20260505222603 | 71 | 6 | 1.0 | 2.0 | 0.00 | 0.03 | 0.03 | 49 | 1011.1 |
| 20260505222059 | 71 | 17 | 1.0 | 6.0 | 0.00 | 0.03 | 0.03 | 51 | 1011.1 |
| 20260505221557 | 70 | 27 | 0.0 | 3.0 | 0.00 | 0.03 | 0.03 | 54 | 1011.1 |
| 20260505221053 | 70 | 42 | 0.0 | 2.0 | 0.00 | 0.03 | 0.03 | 55 | 1011.2 |
| 20260505220550 | 70 | 31 | 0.0 | 0.0 | 0.00 | 0.03 | 0.03 | 56 | 1011.0 |
| 20260505220048 | 71 | 40 | 0.0 | 1.0 | 0.00 | 0.03 | 0.03 | 53 | 1010.9 |
| 20260505215546 | 71 | 7 | 1.0 | 1.0 | 0.00 | 0.03 | 0.03 | 52 | 1010.8 |
| 20260505215044 | 71 | 31 | 1.0 | 2.0 | 0.00 | 0.03 | 0.03 | 52 | 1011.0 |
| 20260505214542 | 71 | 12 | 1.0 | 1.0 | 0.00 | 0.03 | 0.03 | 52 | 1010.9 |
| 20260505214038 | 71 | 21 | 0.0 | 1.0 | 0.00 | 0.03 | 0.03 | 50 | 1011.0 |
| 20260505213536 | 72 | 196 | 2.0 | 5.0 | 0.00 | 0.03 | 0.03 | 50 | 1010.9 |
| 20260505213032 | 71 | 72 | 1.0 | 5.0 | 0.00 | 0.03 | 0.03 | 51 | 1010.9 |
| 20260505212529 | 72 | 178 | 4.0 | 9.0 | 0.00 | 0.03 | 0.03 | 50 | 1011.1 |
| 20260505212026 | 73 | 19 | 6.0 | 7.0 | 0.00 | 0.03 | 0.03 | 48 | 1011.2 |
| 20260505211523 | 73 | 178 | 3.0 | 7.0 | 0.00 | 0.03 | 0.03 | 44 | 1010.8 |
| 20260505211019 | 74 | 16 | 2.0 | 9.0 | 0.00 | 0.03 | 0.03 | 43 | 1010.4 |
| 20260505210516 | 75 | 12 | 3.0 | 5.0 | 0.00 | 0.03 | 0.03 | 41 | 1010.3 |
| 20260505210014 | 74 | 191 | 4.0 | 8.0 | 0.00 | 0.03 | 0.03 | 40 | 1010.1 |
| 20260505205512 | 74 | 168 | 5.0 | 7.0 | 0.00 | 0.03 | 0.03 | 43 | 1010.2 |
| 20260505205008 | 74 | 340 | 3.0 | 7.0 | 0.00 | 0.03 | 0.03 | 42 | 1010.5 |
| 20260505204506 | 74 | 212 | 3.0 | 5.0 | 0.00 | 0.03 | 0.03 | 41 | 1010.1 |
| 20260505204003 | 74 | 170 | 4.0 | 6.0 | 0.00 | 0.03 | 0.03 | 40 | 1010.2 |
| 20260505203459 | 75 | 60 | 3.0 | 5.0 | 0.00 | 0.03 | 0.03 | 39 | 1010.2 |
| 20260505202956 | 75 | 108 | 1.0 | 2.0 | 0.00 | 0.03 | 0.03 | 42 | 1010.2 |
| 20260505202453 | 75 | 322 | 4.0 | 6.0 | 0.00 | 0.03 | 0.03 | 40 | 1010.1 |
| 20260505201948 | 76 | 268 | 4.0 | 8.0 | 0.00 | 0.03 | 0.03 | 40 | 1010.1 |
| 20260505201446 | 76 | 130 | 2.0 | 5.0 | 0.00 | 0.03 | 0.03 | 39 | 1010.0 |
| 20260505200943 | 76 | 43 | 1.0 | 7.0 | 0.00 | 0.03 | 0.03 | 40 | 1010.1 |
| 20260505200441 | 77 | 11 | 2.0 | 7.0 | 0.00 | 0.03 | 0.03 | 40 | 1010.1 |
| 20260505195936 | 79 | 41 | 2.0 | 9.0 | 0.00 | 0.03 | 0.03 | 37 | 1010.1 |
| 20260505195434 | 80 | 300 | 3.0 | 9.0 | 0.00 | 0.03 | 0.03 | 36 | 1010.3 |
| 20260505194931 | 79 | 178 | 6.0 | 7.0 | 0.00 | 0.03 | 0.03 | 35 | 1010.2 |
| 20260505194428 | 79 | 348 | 2.0 | 6.0 | 0.00 | 0.03 | 0.03 | 38 | 1010.0 |
| 20260505193928 | 79 | 179 | 5.0 | 9.0 | 0.00 | 0.03 | 0.03 | 35 | 1010.0 |
| 20260505193426 | 78 | 25 | 5.0 | 10.0 | 0.00 | 0.03 | 0.03 | 37 | 1010.3 |
| 20260505192924 | 78 | 284 | 4.0 | 7.0 | 0.00 | 0.03 | 0.03 | 39 | 1010.4 |
| 20260505192422 | 78 | 341 | 3.0 | 6.0 | 0.00 | 0.03 | 0.03 | 40 | 1010.4 |
| 20260505191919 | 78 | 276 | 4.0 | 9.0 | 0.00 | 0.03 | 0.03 | 39 | 1010.7 |
| 20260505191418 | 78 | 307 | 4.0 | 14.0 | 0.00 | 0.03 | 0.03 | 41 | 1010.7 |
| 20260505190914 | 77 | 207 | 5.0 | 9.0 | 0.00 | 0.03 | 0.03 | 37 | 1010.8 |
| 20260505190409 | 77 | 183 | 2.0 | 9.0 | 0.00 | 0.03 | 0.03 | 40 | 1011.0 |
| 20260505185905 | 79 | 276 | 5.0 | 10.0 | 0.00 | 0.03 | 0.03 | 39 | 1010.8 |
| 20260505185402 | 78 | 310 | 2.0 | 6.0 | 0.00 | 0.03 | 0.03 | 40 | 1011.0 |
| 20260505184858 | 78 | 29 | 4.0 | 8.0 | 0.00 | 0.03 | 0.03 | 39 | 1010.9 |
| 20260505184355 | 79 | 344 | 5.0 | 10.0 | 0.00 | 0.03 | 0.03 | 41 | 1011.0 |
| 20260505183852 | 78 | 356 | 2.0 | 9.0 | 0.00 | 0.03 | 0.03 | 38 | 1011.2 |
| 20260505183349 | 78 | 304 | 4.0 | 20.0 | 0.00 | 0.03 | 0.03 | 37 | 1011.3 |